Tracking 19832 objects as of 25-Aug-2019
HD Live streaming from Space Station
objects crossing your sky now

METEOR 2-5 DEB

Track METEOR 2-5 DEB now!
10-day predictions


NORAD ID: 38277
Int'l Code: 1979-095BX
Perigee: 804.6 km
Apogee: 829.2 km
Inclination: 81.2 °
Period: 101.1 minutes
Semi major axis: 7187 km
RCS: 0.003 m2 (small)
Launch date: October 31, 1979
Source: Commonwealth of Independent States (former USSR) (CIS)
Launch site: PLESETSK MISSILE AND SPACE COMPLEX (PKMTR)

Note: This is SATELLITE DEBRIS
aabbcc
Your satellite tracking list
Your tracking list is empty




NASA's NSSDC Master Catalog

Two Line Element Set (TLE):
1 38277U 79095BX  19235.88441064 +.00001509 +00000-0 +64368-3 0  9997
2 38277 081.2127 081.1568 0017174 298.7223 122.1331 14.24624372415875
Source of the keplerian elements: AFSPC